Weather History for Tampa, FL

Change the Weather History Date:

Thursday, March 7, 2013

  Actual Average Record
Temperature  
Mean Temperature 54 °F 66 °F  
Max Temperature 64 °F 75 °F 86 °F (1964)
Min Temperature 43 °F 57 °F 34 °F (1901)
Degree Days  
Heating Degree Days 11 2  
Month to date heating degree days 70 20  
Since 1 July heating degree days 327 491  
Cooling Degree Days 0 4  
Month to date cooling degree days 0 22  
Year to date cooling degree days 214 135  
Growing Degree Days 4 (Base 50)    
Moisture  
Dew Point 35 °F    
Average Humidity 57    
Maximum Humidity 74    
Minimum Humidity 39    
Precipitation  
Precipitation 0.00 in 0.10 in 2.19 in (1983)
Month to date precipitation 0.01 0.67  
Year to date precipitation 1.57 5.71  
Sea Level Pressure  
Sea Level Pressure 30.21 in    
Wind  
Wind Speed 7 mph (NNW)    
Max Wind Speed 17 mph    
Max Gust Speed 26 mph    
Visibility 10 miles    
Events      
T = Trace of Precipitation, MM = Missing Value Source: NWS Daily Summary

Daily Weather History Graph

Daily Weather History Graph

Search for Another Location

Airport:

Trip Planner

Search our weather history database for the weather conditions in past years. The results will help you decide how hot, cold, wet, or windy it might be!

Date:

Astronomy

Mar. 07, 2013 Rise Set
Actual Time 6:48 AM EST 6:34 PM EST
Civil Twilight 6:24 AM EST 6:57 PM EST
Nautical Twilight 5:57 AM EST 7:24 PM EST
Astronomical Twilight 5:30 AM EST 7:52 PM EST
Moon 3:28 AM EST (3/7) 2:37 PM EST (3/7)
Length of Visible Light 12h 33m
Length of Day
11h 46m
Waning Crescent, 20% of the Moon is Illuminated
Mar 7
Waning Crescent
Mar 11
New
Mar 19
First Quarter
Mar 27
Full
Apr 3
Last Quarter

Hourly Weather History & Observations

Time (EST) Temp. Windchill Dew Point Humidity Pressure Visibility Wind Dir Wind Speed Gust Speed Precip Events Conditions
12:53 AM 51.1 °F - 34.0 °F 52% 30.17 in 10.0 mi North 6.9 mph - N/A   Clear
1:53 AM 48.9 °F - 30.9 °F 50% 30.18 in 10.0 mi North 6.9 mph - N/A   Clear
2:53 AM 48.0 °F - 30.0 °F 50% 30.17 in 10.0 mi North 8.1 mph - N/A   Clear
3:53 AM 46.9 °F - 30.0 °F 52% 30.17 in 10.0 mi North 10.4 mph - N/A   Clear
4:53 AM 46.0 °F 40.6 °F 30.0 °F 54% 30.18 in 10.0 mi North 11.5 mph - N/A   Clear
5:53 AM 45.0 °F 40.6 °F 30.0 °F 56% 30.20 in 10.0 mi North 8.1 mph - N/A   Clear
6:53 AM 44.1 °F 39.5 °F 30.0 °F 58% 30.21 in 10.0 mi North 8.1 mph - N/A   Clear
7:53 AM 45.0 °F 40.1 °F 30.9 °F 58% 30.23 in 10.0 mi North 9.2 mph - N/A   Clear
8:53 AM 48.0 °F - 30.0 °F 50% 30.24 in 10.0 mi North 11.5 mph - N/A   Clear
9:53 AM 51.1 °F - 30.0 °F 44% 30.25 in 10.0 mi NE 8.1 mph - N/A   Clear
10:53 AM 55.9 °F - 32.0 °F 40% 30.26 in 10.0 mi NNE 10.4 mph - N/A   Partly Cloudy
11:53 AM 57.0 °F - 32.0 °F 39% 30.24 in 10.0 mi Calm Calm - N/A   Partly Cloudy
12:53 PM 59.0 °F - 37.0 °F 44% 30.23 in 10.0 mi SW 6.9 mph - N/A   Partly Cloudy
1:53 PM 61.0 °F - 37.0 °F 41% 30.20 in 10.0 mi WSW 9.2 mph - N/A   Clear
2:53 PM 62.1 °F - 37.9 °F 41% 30.18 in 10.0 mi WSW 11.5 mph - N/A   Clear
3:53 PM 61.0 °F - 36.0 °F 39% 30.19 in 10.0 mi West 13.8 mph - N/A   Clear
4:53 PM 60.1 °F - 36.0 °F 41% 30.18 in 10.0 mi Variable 6.9 mph - N/A   Clear
5:53 PM 57.9 °F - 37.9 °F 47% 30.18 in 10.0 mi West 10.4 mph - N/A   Clear
6:53 PM 54.0 °F - 39.9 °F 59% 30.20 in 10.0 mi WNW 9.2 mph - N/A   Partly Cloudy
7:53 PM 52.0 °F - 41.0 °F 66% 30.22 in 10.0 mi WNW 6.9 mph - N/A   Clear
8:53 PM 51.1 °F - 42.1 °F 71% 30.23 in 10.0 mi NNW 4.6 mph - N/A   Clear
9:53 PM 50.0 °F - 43.0 °F 77% 30.24 in 10.0 mi Calm Calm - N/A   Clear
10:53 PM 50.0 °F - 43.0 °F 77% 30.23 in 10.0 mi Calm Calm - N/A   Partly Cloudy
11:53 PM 50.0 °F - 44.1 °F 80% 30.23 in 10.0 mi Calm Calm - N/A   Scattered Clouds